GFSFLT1_prec_precacc12_108.txt.gz
Total_Precipitation_Accumulation
0.00 0.00 0.00 0.00 0.00 0.00 0.00 0.00 0.00 0.02 0.10 0.16 0.15 0.11 0.06 0.01 0.01 0.00 0.00 0.00 0.00 0.00 0.00 0.00 0.01 0.04 0.02 0.05 0.12 0.12 0.14 0.24
0.00 0.00 0.00 0.00 0.00 0.00 0.00 0.00 0.00 0.02 0.01 0.02 0.01 0.02 0.02 0.02 0.01 0.04 0.00 0.00 0.00 0.00 0.00 0.00 0.00 0.01 0.02 0.05 0.12 0.17 0.23 0.24
0.00 0.00 0.00 0.00 0.00 0.00 0.00 0.00 0.00 0.00 0.00 0.01 0.02 0.03 0.05 0.07 0.08 0.07 0.04 0.01 0.01 0.01 0.01 0.01 0.01 0.02 0.05 0.07 0.10 0.21 0.24 0.26
0.00 0.00 0.00 0.00 0.00 0.00 0.00 0.00 0.00 0.00 0.01 0.02 0.03 0.06 0.08 0.09 0.04 0.04 0.02 0.02 0.05 0.03 0.07 0.07 0.07 0.05 0.18 0.25 0.13 0.11 0.22 0.26
0.00 0.00 0.00 0.00 0.00 0.00 0.00 0.00 0.00 0.00 0.00 0.00 0.00 0.00 0.00 0.00 0.01 0.01 0.04 0.09 0.05 0.05 0.07 0.12 0.08 0.04 0.04 0.12 0.12 0.12 0.14 0.20
0.00 0.00 0.00 0.00 0.00 0.00 0.00 0.00 0.00 0.00 0.00 0.00 0.01 0.00 0.00 0.00 0.01 0.02 0.02 0.04 0.06 0.09 0.06 0.08 0.10 0.06 0.07 0.06 0.06 0.09 0.13 0.11
0.01 0.01 0.01 0.00 0.00 0.00 0.00 0.00 0.00 0.00 0.00 0.00 0.00 0.00 0.00 0.00 0.00 0.01 0.01 0.02 0.06 0.06 0.08 0.08 0.08 0.06 0.06 0.07 0.08 0.10 0.09 0.11
0.07 0.06 0.05 0.04 0.01 0.00 0.00 0.00 0.00 0.01 0.01 0.00 0.01 0.01 0.02 0.00 0.00 0.00 0.00 0.02 0.01 0.03 0.06 0.04 0.05 0.07 0.07 0.08 0.14 0.13 0.13 0.11
0.15 0.15 0.12 0.07 0.05 0.03 0.01 0.02 0.03 0.04 0.04 0.03 0.05 0.04 0.05 0.03 0.03 0.02 0.01 0.03 0.03 0.03 0.02 0.02 0.04 0.07 0.14 0.16 0.14 0.16 0.13 0.14
0.17 0.19 0.18 0.14 0.11 0.07 0.05 0.05 0.11 0.14 0.11 0.10 0.13 0.11 0.09 0.07 0.09 0.07 0.07 0.07 0.05 0.02 0.01 0.01 0.04 0.09 0.20 0.30 0.26 0.20 0.16 0.17
0.19 0.22 0.26 0.19 0.22 0.19 0.16 0.08 0.05 0.11 0.17 0.18 0.15 0.18 0.19 0.13 0.11 0.09 0.06 0.04 0.02 0.00 0.01 0.02 0.08 0.18 0.26 0.35 0.41 0.35 0.31 0.28
0.31 0.27 0.25 0.27 0.16 0.19 0.23 0.15 0.11 0.21 0.26 0.21 0.17 0.17 0.14 0.15 0.13 0.14 0.08 0.04 0.02 0.01 0.02 0.05 0.13 0.18 0.32 0.43 0.45 0.40 0.44 0.42
0.20 0.23 0.11 0.13 0.09 0.08 0.13 0.20 0.20 0.18 0.30 0.26 0.24 0.19 0.14 0.14 0.16 0.15 0.11 0.06 0.04 0.04 0.03 0.05 0.10 0.18 0.22 0.39 0.48 0.49 0.48 0.55
0.03 0.02 0.02 0.04 0.04 0.04 0.04 0.12 0.20 0.26 0.33 0.31 0.34 0.40 0.27 0.27 0.25 0.19 0.15 0.09 0.06 0.04 0.02 0.02 0.04 0.14 0.28 0.33 0.49 0.46 0.49 0.53
0.01 0.00 0.01 0.01 0.02 0.05 0.04 0.06 0.16 0.24 0.31 0.32 0.32 0.38 0.33 0.26 0.27 0.19 0.14 0.08 0.04 0.02 0.01 0.02 0.06 0.11 0.32 0.47 0.46 0.56 0.49 0.53
0.00 0.00 0.01 0.01 0.02 0.03 0.03 0.05 0.15 0.23 0.31 0.29 0.36 0.27 0.34 0.29 0.24 0.13 0.09 0.03 0.01 0.00 0.00 0.01 0.08 0.16 0.26 0.42 0.53 0.60 0.61 0.56
0.01 0.01 0.01 0.02 0.02 0.03 0.03 0.03 0.10 0.26 0.42 0.43 0.29 0.33 0.19 0.16 0.15 0.07 0.08 0.03 0.01 0.01 0.02 0.03 0.03 0.07 0.23 0.29 0.48 0.78 0.77 0.74
0.02 0.03 0.04 0.04 0.03 0.03 0.04 0.03 0.06 0.14 0.49 0.64 0.45 0.54 0.33 0.12 0.04 0.04 0.04 0.09 0.06 0.06 0.06 0.06 0.04 0.03 0.19 0.20 0.32 0.50 0.87 0.84
0.04 0.04 0.05 0.05 0.02 0.01 0.03 0.03 0.06 0.10 0.16 0.25 0.44 0.49 0.35 0.21 0.12 0.06 0.06 0.09 0.12 0.12 0.10 0.08 0.09 0.11 0.11 0.16 0.31 0.28 0.41 0.60

GFSFLT1_prec_precacc12_111.txt.gz
Total_Precipitation_Accumulation
0.00 0.00 0.00 0.00 0.00 0.00 0.00 0.00 0.00 0.01 0.10 0.16 0.16 0.13 0.06 0.01 0.01 0.00 0.00 0.00 0.00 0.00 0.00 0.00 0.00 0.01 0.00 0.01 0.03 0.03 0.04 0.07
0.00 0.00 0.00 0.00 0.00 0.00 0.00 0.00 0.00 0.01 0.01 0.02 0.01 0.01 0.01 0.01 0.01 0.04 0.00 0.00 0.00 0.00 0.01 0.01 0.00 0.01 0.01 0.01 0.02 0.03 0.08 0.13
0.00 0.00 0.00 0.00 0.00 0.00 0.00 0.00 0.00 0.00 0.00 0.01 0.02 0.03 0.04 0.07 0.07 0.06 0.04 0.01 0.01 0.01 0.01 0.01 0.01 0.01 0.01 0.02 0.02 0.05 0.06 0.14
0.00 0.00 0.00 0.00 0.00 0.00 0.00 0.00 0.00 0.00 0.01 0.02 0.03 0.06 0.08 0.09 0.04 0.02 0.01 0.02 0.04 0.03 0.06 0.06 0.06 0.05 0.02 0.03 0.04 0.04 0.06 0.11
0.00 0.00 0.00 0.00 0.00 0.00 0.00 0.00 0.00 0.00 0.00 0.00 0.00 0.00 0.00 0.00 0.01 0.00 0.03 0.09 0.05 0.04 0.06 0.10 0.08 0.03 0.03 0.06 0.05 0.04 0.05 0.08
0.00 0.00 0.00 0.00 0.00 0.00 0.00 0.00 0.00 0.00 0.00 0.00 0.01 0.00 0.00 0.00 0.01 0.01 0.02 0.04 0.07 0.12 0.06 0.08 0.09 0.05 0.05 0.05 0.05 0.06 0.04 0.04
0.01 0.01 0.01 0.01 0.00 0.00 0.00 0.00 0.00 0.00 0.00 0.00 0.00 0.00 0.00 0.00 0.00 0.01 0.02 0.03 0.12 0.11 0.13 0.13 0.11 0.06 0.05 0.06 0.06 0.04 0.04 0.06
0.08 0.06 0.06 0.05 0.03 0.01 0.01 0.00 0.00 0.01 0.01 0.00 0.01 0.01 0.01 0.00 0.00 0.00 0.01 0.03 0.03 0.04 0.08 0.07 0.07 0.08 0.07 0.06 0.07 0.06 0.05 0.05
0.16 0.16 0.16 0.13 0.12 0.09 0.05 0.05 0.05 0.04 0.04 0.03 0.04 0.04 0.04 0.03 0.03 0.02 0.01 0.03 0.06 0.06 0.08 0.15 0.10 0.11 0.09 0.09 0.09 0.08 0.07 0.08
0.18 0.20 0.23 0.21 0.17 0.14 0.11 0.12 0.18 0.18 0.12 0.11 0.13 0.11 0.08 0.06 0.08 0.07 0.07 0.08 0.09 0.06 0.09 0.09 0.07 0.06 0.10 0.12 0.12 0.13 0.11 0.10
0.26 0.25 0.28 0.24 0.25 0.17 0.16 0.13 0.13 0.16 0.24 0.25 0.18 0.17 0.21 0.15 0.11 0.09 0.06 0.04 0.02 0.02 0.04 0.04 0.05 0.05 0.08 0.16 0.20 0.23 0.23 0.22
0.49 0.50 0.35 0.41 0.36 0.29 0.24 0.17 0.16 0.29 0.34 0.29 0.22 0.17 0.17 0.16 0.15 0.15 0.09 0.07 0.04 0.01 0.03 0.04 0.05 0.05 0.07 0.21 0.30 0.34 0.35 0.29
0.34 0.74 0.59 0.48 0.34 0.31 0.22 0.25 0.26 0.23 0.33 0.29 0.25 0.17 0.16 0.20 0.21 0.20 0.14 0.10 0.08 0.08 0.06 0.05 0.05 0.05 0.10 0.18 0.32 0.42 0.39 0.42
0.09 0.17 0.20 0.23 0.10 0.08 0.08 0.15 0.23 0.31 0.42 0.43 0.44 0.47 0.37 0.31 0.31 0.26 0.22 0.19 0.17 0.19 0.14 0.08 0.03 0.03 0.10 0.16 0.30 0.31 0.38 0.44
0.05 0.01 0.01 0.01 0.01 0.12 0.30 0.04 0.14 0.20 0.33 0.38 0.44 0.45 0.48 0.42 0.38 0.27 0.23 0.19 0.17 0.16 0.11 0.06 0.03 0.03 0.12 0.18 0.20 0.32 0.32 0.36
0.03 0.03 0.02 0.01 0.01 0.01 0.03 0.02 0.11 0.30 0.29 0.29 0.37 0.37 0.42 0.37 0.30 0.20 0.16 0.12 0.09 0.08 0.06 0.04 0.04 0.09 0.13 0.21 0.30 0.34 0.45 0.42
0.03 0.02 0.02 0.02 0.02 0.03 0.03 0.02 0.05 0.27 0.43 0.43 0.29 0.46 0.35 0.26 0.28 0.29 0.21 0.20 0.11 0.11 0.09 0.05 0.03 0.05 0.16 0.23 0.38 0.61 0.62 0.62
0.05 0.05 0.06 0.06 0.05 0.04 0.04 0.02 0.06 0.08 0.47 0.82 0.73 0.70 0.76 0.54 0.19 0.22 0.19 0.23 0.17 0.15 0.09 0.05 0.04 0.03 0.17 0.17 0.25 0.38 0.69 0.66
0.05 0.06 0.07 0.07 0.03 0.01 0.01 0.00 0.02 0.06 0.08 0.32 0.71 0.76 0.94 0.92 0.55 0.28 0.30 0.18 0.21 0.10 0.07 0.05 0.06 0.08 0.09 0.12 0.23 0.23 0.30 0.51

GFSFLT1_prec_precacc12_117.txt.gz
Total_Precipitation_Accumulation
0.00 0.00 0.00 0.00 0.00 0.00 0.00 0.00 0.00 0.00 0.02 0.07 0.04 0.03 0.01 0.00 0.01 0.00 0.00 0.00 0.00 0.01 0.01 0.01 0.01 0.01 0.01 0.01 0.01 0.01 0.01 0.03
0.00 0.00 0.00 0.00 0.00 0.00 0.00 0.00 0.00 0.00 0.00 0.01 0.00 0.00 0.00 0.00 0.00 0.00 0.00 0.00 0.00 0.00 0.01 0.01 0.01 0.01 0.01 0.01 0.02 0.02 0.04 0.04
0.00 0.00 0.00 0.00 0.00 0.00 0.00 0.00 0.00 0.00 0.00 0.00 0.00 0.00 0.00 0.01 0.02 0.01 0.00 0.00 0.00 0.01 0.01 0.01 0.01 0.01 0.01 0.01 0.00 0.02 0.03 0.06
0.00 0.00 0.00 0.00 0.00 0.00 0.00 0.00 0.00 0.00 0.00 0.00 0.01 0.02 0.02 0.04 0.02 0.00 0.00 0.00 0.02 0.00 0.03 0.04 0.05 0.04 0.02 0.02 0.02 0.02 0.04 0.06
0.00 0.00 0.00 0.00 0.00 0.00 0.00 0.00 0.00 0.00 0.00 0.00 0.00 0.00 0.00 0.00 0.00 0.00 0.00 0.02 0.02 0.00 0.01 0.03 0.04 0.02 0.02 0.05 0.04 0.03 0.03 0.02
0.00 0.00 0.00 0.00 0.00 0.00 0.00 0.00 0.00 0.00 0.00 0.00 0.00 0.00 0.00 0.00 0.00 0.00 0.00 0.02 0.04 0.05 0.01 0.03 0.03 0.02 0.03 0.03 0.04 0.04 0.02 0.02
0.00 0.00 0.00 0.00 0.00 0.00 0.00 0.00 0.00 0.00 0.00 0.00 0.00 0.00 0.00 0.00 0.00 0.01 0.02 0.03 0.11 0.08 0.06 0.07 0.07 0.03 0.02 0.04 0.06 0.03 0.03 0.03
0.01 0.02 0.02 0.03 0.02 0.01 0.01 0.00 0.00 0.00 0.00 0.00 0.00 0.00 0.00 0.00 0.00 0.01 0.03 0.05 0.04 0.04 0.05 0.05 0.05 0.06 0.11 0.08 0.07 0.05 0.05 0.03
0.03 0.07 0.09 0.09 0.12 0.09 0.07 0.05 0.04 0.02 0.01 0.01 0.01 0.01 0.00 0.00 0.01 0.02 0.02 0.04 0.06 0.07 0.10 0.17 0.16 0.16 0.14 0.08 0.09 0.11 0.08 0.04
0.08 0.10 0.11 0.14 0.14 0.14 0.15 0.15 0.15 0.12 0.07 0.05 0.05 0.04 0.03 0.03 0.04 0.08 0.07 0.08 0.10 0.08 0.11 0.15 0.11 0.07 0.12 0.11 0.09 0.09 0.10 0.06
0.16 0.20 0.23 0.18 0.16 0.14 0.21 0.19 0.17 0.17 0.19 0.18 0.08 0.07 0.14 0.10 0.09 0.08 0.10 0.10 0.12 0.08 0.06 0.06 0.09 0.10 0.12 0.13 0.14 0.14 0.12 0.09
0.51 0.59 0.44 0.45 0.42 0.31 0.23 0.23 0.20 0.26 0.26 0.27 0.21 0.13 0.13 0.14 0.15 0.13 0.16 0.31 0.25 0.13 0.07 0.04 0.07 0.12 0.09 0.12 0.11 0.15 0.15 0.08
0.39 0.91 1.00 0.85 0.79 0.79 0.40 0.38 0.41 0.38 0.31 0.31 0.34 0.27 0.19 0.22 0.33 0.36 0.37 0.39 0.35 0.22 0.21 0.15 0.10 0.16 0.19 0.17 0.15 0.16 0.20 0.16
0.15 0.32 0.54 1.00 0.47 0.70 0.48 0.42 0.52 0.46 0.34 0.45 0.51 0.49 0.39 0.30 0.41 0.51 0.45 0.54 0.56 0.53 0.55 0.45 0.28 0.24 0.22 0.22 0.19 0.20 0.22 0.23
0.11 0.12 0.14 0.16 0.21 0.74 1.52 0.40 0.42 0.47 0.31 0.34 0.46 0.53 0.56 0.58 0.52 0.52 0.50 0.50 0.54 0.55 0.40 0.28 0.19 0.13 0.07 0.08 0.08 0.09 0.07 0.08
0.08 0.10 0.11 0.11 0.13 0.15 0.28 0.25 0.53 0.86 0.58 0.36 0.31 0.43 0.50 0.65 0.63 0.46 0.41 0.38 0.37 0.35 0.29 0.25 0.20 0.12 0.12 0.10 0.07 0.07 0.06 0.06
0.08 0.08 0.07 0.07 0.08 0.14 0.09 0.10 0.23 0.39 0.71 0.88 0.40 0.70 0.63 0.37 0.49 0.49 0.38 0.36 0.27 0.26 0.21 0.19 0.21 0.18 0.21 0.18 0.12 0.06 0.05 0.09
0.08 0.09 0.09 0.10 0.09 0.08 0.09 0.11 0.23 0.21 0.50 1.35 1.26 1.13 1.70 1.07 0.56 0.71 0.47 0.39 0.34 0.32 0.29 0.23 0.20 0.17 0.21 0.19 0.20 0.09 0.06 0.14
0.05 0.06 0.06 0.06 0.03 0.02 0.01 0.00 0.06 0.14 0.09 0.44 1.05 1.04 1.51 2.00 1.32 1.13 1.13 0.82 0.58 0.34 0.32 0.26 0.21 0.23 0.27 0.29 0.33 0.27 0.18 0.08

GFSFLT1_prec_precacc12_120.txt.gz
Total_Precipitation_Accumulation
0.00 0.00 0.00 0.00 0.00 0.00 0.00 0.00 0.00 0.00 0.00 0.00 0.01 0.02 0.01 0.02 0.02 0.01 0.00 0.00 0.00 0.01 0.01 0.01 0.01 0.00 0.01 0.01 0.01 0.01 0.02 0.03
0.00 0.00 0.00 0.00 0.00 0.00 0.00 0.00 0.00 0.00 0.00 0.00 0.00 0.00 0.00 0.00 0.00 0.00 0.02 0.00 0.00 0.00 0.01 0.01 0.01 0.01 0.01 0.01 0.02 0.02 0.04 0.05
0.00 0.00 0.00 0.00 0.00 0.00 0.00 0.00 0.00 0.00 0.00 0.00 0.00 0.00 0.00 0.00 0.01 0.01 0.00 0.00 0.00 0.01 0.00 0.00 0.01 0.01 0.01 0.01 0.01 0.02 0.03 0.06
0.00 0.00 0.00 0.00 0.00 0.00 0.00 0.00 0.00 0.00 0.00 0.00 0.00 0.00 0.01 0.02 0.01 0.01 0.00 0.00 0.04 0.05 0.01 0.00 0.01 0.01 0.01 0.01 0.01 0.01 0.04 0.06
0.00 0.00 0.00 0.00 0.00 0.00 0.00 0.00 0.00 0.00 0.00 0.00 0.00 0.00 0.00 0.00 0.00 0.00 0.00 0.02 0.04 0.08 0.07 0.02 0.03 0.04 0.01 0.02 0.02 0.02 0.02 0.02
0.00 0.00 0.00 0.00 0.00 0.00 0.00 0.00 0.00 0.00 0.00 0.00 0.00 0.00 0.00 0.00 0.00 0.00 0.02 0.03 0.09 0.22 0.14 0.11 0.11 0.23 0.08 0.02 0.01 0.02 0.02 0.02
0.00 0.00 0.00 0.00 0.00 0.00 0.00 0.00 0.00 0.00 0.00 0.00 0.00 0.00 0.00 0.00 0.00 0.01 0.04 0.07 0.12 0.13 0.13 0.17 0.17 0.17 0.13 0.06 0.08 0.03 0.02 0.02
0.00 0.00 0.00 0.01 0.02 0.01 0.01 0.00 0.00 0.00 0.00 0.00 0.00 0.00 0.00 0.00 0.00 0.01 0.04 0.08 0.09 0.05 0.12 0.12 0.10 0.10 0.10 0.10 0.14 0.06 0.04 0.02
0.00 0.01 0.05 0.06 0.07 0.06 0.06 0.04 0.03 0.01 0.00 0.00 0.00 0.00 0.01 0.00 0.00 0.01 0.01 0.05 0.08 0.09 0.14 0.22 0.19 0.22 0.15 0.07 0.07 0.09 0.08 0.04
0.01 0.01 0.05 0.08 0.09 0.09 0.10 0.12 0.13 0.10 0.05 0.02 0.02 0.02 0.02 0.01 0.01 0.03 0.02 0.03 0.13 0.15 0.20 0.25 0.20 0.11 0.12 0.06 0.06 0.07 0.09 0.06
0.08 0.05 0.04 0.09 0.07 0.07 0.14 0.15 0.16 0.15 0.16 0.14 0.05 0.04 0.07 0.06 0.05 0.05 0.07 0.08 0.14 0.25 0.31 0.31 0.32 0.20 0.15 0.15 0.14 0.16 0.15 0.12
0.22 0.33 0.24 0.28 0.35 0.24 0.12 0.16 0.18 0.20 0.23 0.23 0.18 0.11 0.13 0.15 0.15 0.11 0.13 0.28 0.29 0.20 0.25 0.49 0.41 0.35 0.20 0.16 0.13 0.16 0.17 0.10
0.20 0.70 0.96 0.85 0.82 0.79 0.37 0.29 0.33 0.35 0.28 0.25 0.27 0.28 0.22 0.26 0.37 0.37 0.40 0.44 0.46 0.40 0.40 0.34 0.34 0.30 0.28 0.20 0.17 0.17 0.20 0.16
0.14 0.34 0.60 1.06 0.50 0.73 0.54 0.50 0.58 0.56 0.46 0.40 0.47 0.46 0.40 0.30 0.42 0.51 0.55 0.76 0.86 0.93 1.03 0.97 0.71 0.43 0.30 0.25 0.22 0.21 0.21 0.22
0.12 0.14 0.17 0.20 0.27 0.81 1.59 0.53 0.56 0.70 0.68 0.41 0.44 0.49 0.53 0.55 0.45 0.44 0.53 0.62 0.72 0.84 0.72 0.60 0.49 0.37 0.20 0.16 0.15 0.15 0.15 0.19
0.11 0.13 0.14 0.14 0.14 0.19 0.35 0.33 0.67 1.06 0.91 0.78 0.46 0.42 0.34 0.47 0.49 0.45 0.40 0.60 0.66 0.54 0.46 0.50 0.45 0.42 0.37 0.24 0.22 0.25 0.23 0.19
0.11 0.11 0.08 0.08 0.10 0.16 0.12 0.16 0.35 0.54 0.78 1.01 0.62 0.82 0.63 0.30 0.42 0.53 0.47 0.51 0.46 0.41 0.38 0.39 0.46 0.45 0.56 0.49 0.32 0.18 0.17 0.17
0.07 0.08 0.07 0.08 0.08 0.07 0.09 0.13 0.26 0.26 0.29 1.01 1.18 1.08 1.93 1.24 0.61 0.77 0.52 0.48 0.43 0.43 0.41 0.33 0.30 0.37 0.53 0.47 0.47 0.28 0.20 0.16
0.04 0.05 0.04 0.04 0.02 0.02 0.01 0.00 0.05 0.14 0.08 0.35 0.80 0.77 1.47 2.29 1.61 1.36 1.29 0.91 0.68 0.42 0.41 0.38 0.30 0.31 0.41 0.48 0.51 0.50 0.34 0.25

GFSFLT1_prec_precacc12_126.txt.gz
Total_Precipitation_Accumulation
0.00 0.00 0.00 0.00 0.00 0.00 0.00 0.00 0.00 0.00 0.00 0.00 0.00 0.00 0.03 0.05 0.08 0.30 0.40 0.52 0.65 0.77 0.60 0.26 0.17 0.11 0.06 0.03 0.01 0.01 0.01 0.01
0.00 0.00 0.00 0.00 0.00 0.00 0.00 0.00 0.00 0.00 0.00 0.00 0.00 0.00 0.00 0.05 0.07 0.06 0.24 0.30 0.43 0.47 0.57 0.58 0.34 0.17 0.12 0.12 0.10 0.04 0.04 0.04
0.00 0.00 0.00 0.00 0.00 0.00 0.00 0.00 0.00 0.00 0.00 0.00 0.00 0.00 0.00 0.00 0.03 0.09 0.09 0.11 0.17 0.37 0.41 0.47 0.41 0.28 0.32 0.27 0.24 0.24 0.22 0.20
0.00 0.00 0.00 0.00 0.00 0.00 0.00 0.00 0.00 0.00 0.00 0.00 0.00 0.00 0.00 0.00 0.00 0.01 0.04 0.09 0.14 0.19 0.26 0.28 0.32 0.55 0.41 0.18 0.14 0.25 0.20 0.22
0.00 0.00 0.00 0.00 0.00 0.00 0.00 0.00 0.00 0.00 0.00 0.00 0.00 0.00 0.00 0.00 0.00 0.00 0.01 0.10 0.18 0.24 0.26 0.29 0.35 0.22 0.19 0.10 0.12 0.18 0.25 0.16
0.00 0.00 0.00 0.00 0.00 0.00 0.00 0.00 0.00 0.00 0.00 0.00 0.00 0.00 0.00 0.00 0.00 0.00 0.01 0.03 0.14 0.30 0.38 0.44 0.57 0.78 0.35 0.39 0.27 0.24 0.24 0.20
0.00 0.00 0.00 0.00 0.00 0.00 0.00 0.00 0.00 0.00 0.00 0.00 0.00 0.00 0.00 0.00 0.00 0.01 0.03 0.05 0.05 0.08 0.13 0.22 0.29 0.49 0.68 0.72 0.91 0.70 0.67 0.48
0.00 0.00 0.00 0.00 0.00 0.00 0.00 0.00 0.00 0.00 0.00 0.00 0.00 0.00 0.00 0.00 0.00 0.00 0.03 0.06 0.06 0.03 0.12 0.13 0.12 0.11 0.26 0.59 0.88 1.09 1.37 1.35
0.00 0.00 0.00 0.00 0.00 0.00 0.00 0.00 0.00 0.00 0.00 0.00 0.00 0.00 0.00 0.00 0.00 0.00 0.01 0.04 0.04 0.06 0.07 0.09 0.11 0.18 0.29 0.36 0.47 0.56 0.64 0.97
0.00 0.00 0.00 0.00 0.00 0.00 0.01 0.01 0.01 0.00 0.00 0.00 0.00 0.00 0.00 0.00 0.00 0.02 0.01 0.02 0.08 0.10 0.11 0.12 0.16 0.18 0.25 0.26 0.29 0.36 0.43 0.40
0.00 0.00 0.01 0.01 0.01 0.01 0.02 0.02 0.02 0.02 0.01 0.02 0.02 0.02 0.01 0.02 0.03 0.04 0.05 0.07 0.13 0.22 0.27 0.26 0.28 0.27 0.31 0.35 0.33 0.30 0.44 0.36
0.01 0.01 0.02 0.03 0.04 0.06 0.12 0.16 0.16 0.08 0.04 0.05 0.06 0.06 0.05 0.07 0.09 0.09 0.11 0.19 0.23 0.18 0.24 0.48 0.37 0.45 0.45 0.38 0.42 0.36 0.34 0.38
0.01 0.06 0.09 0.17 0.22 0.27 0.32 0.20 0.27 0.29 0.14 0.08 0.12 0.16 0.11 0.13 0.26 0.30 0.33 0.34 0.39 0.37 0.39 0.36 0.30 0.23 0.35 0.28 0.20 0.28 0.33 0.35
0.05 0.09 0.20 0.34 0.34 0.46 0.45 0.48 0.52 0.55 0.36 0.23 0.25 0.28 0.26 0.22 0.35 0.45 0.45 0.57 0.69 0.72 0.83 0.88 0.65 0.39 0.34 0.36 0.31 0.25 0.21 0.28
0.10 0.11 0.17 0.22 0.28 0.42 0.69 0.53 0.58 0.73 0.71 0.41 0.33 0.41 0.38 0.39 0.32 0.30 0.38 0.43 0.50 0.61 0.55 0.50 0.49 0.45 0.32 0.27 0.36 0.43 0.37 0.41
0.13 0.14 0.15 0.14 0.14 0.20 0.27 0.34 0.57 0.61 0.91 0.84 0.80 0.60 0.45 0.43 0.39 0.36 0.32 0.52 0.60 0.52 0.43 0.55 0.54 0.51 0.56 0.45 0.49 0.60 0.53 0.43
0.08 0.08 0.05 0.05 0.05 0.08 0.09 0.15 0.34 0.35 0.49 0.93 0.77 0.86 0.82 0.51 0.43 0.37 0.49 0.50 0.61 0.80 0.55 0.48 0.68 0.74 1.00 1.07 0.81 0.63 0.55 0.44
0.02 0.03 0.02 0.03 0.02 0.02 0.03 0.08 0.14 0.18 0.19 0.49 0.76 0.89 1.26 0.85 0.45 0.43 0.50 0.74 0.72 0.63 0.75 0.67 0.66 0.75 0.97 1.12 1.18 0.92 0.90 0.84
0.01 0.01 0.00 0.01 0.00 0.00 0.00 0.00 0.01 0.03 0.04 0.09 0.21 0.25 0.66 1.24 0.81 0.86 0.88 0.66 0.53 0.46 0.51 0.61 0.65 1.12 1.05 1.41 1.60 1.46 1.08 0.88

GFSFLT1_prec_precacc12_129.txt.gz
Total_Precipitation_Accumulation
0.00 0.00 0.00 0.00 0.00 0.00 0.00 0.00 0.00 0.00 0.00 0.00 0.00 0.00 0.03 0.05 0.08 0.30 0.40 0.53 0.70 0.93 1.04 0.86 0.72 0.54 0.30 0.19 0.10 0.10 0.07 0.03
0.00 0.00 0.00 0.00 0.00 0.00 0.00 0.00 0.00 0.00 0.00 0.00 0.00 0.00 0.00 0.05 0.07 0.06 0.24 0.30 0.44 0.53 0.88 1.54 1.31 0.66 0.44 0.45 0.36 0.22 0.19 0.18
0.00 0.00 0.00 0.00 0.00 0.00 0.00 0.00 0.00 0.00 0.00 0.00 0.00 0.00 0.00 0.00 0.03 0.09 0.09 0.11 0.17 0.37 0.43 0.62 0.98 0.97 0.69 0.52 0.51 0.52 0.43 0.44
0.00 0.00 0.00 0.00 0.00 0.00 0.00 0.00 0.00 0.00 0.00 0.00 0.00 0.00 0.00 0.00 0.00 0.01 0.04 0.09 0.14 0.19 0.26 0.30 0.49 0.95 0.83 0.47 0.32 0.42 0.40 0.41
0.00 0.00 0.00 0.00 0.00 0.00 0.00 0.00 0.00 0.00 0.00 0.00 0.00 0.00 0.00 0.00 0.00 0.00 0.01 0.10 0.18 0.24 0.26 0.29 0.37 0.39 0.62 0.54 0.39 0.33 0.38 0.27
0.00 0.00 0.00 0.00 0.00 0.00 0.00 0.00 0.00 0.00 0.00 0.00 0.00 0.00 0.00 0.00 0.00 0.00 0.01 0.02 0.12 0.30 0.37 0.44 0.56 0.79 0.40 0.68 0.64 0.55 0.45 0.37
0.00 0.00 0.00 0.00 0.00 0.00 0.00 0.00 0.00 0.00 0.00 0.00 0.00 0.00 0.00 0.00 0.00 0.00 0.02 0.04 0.04 0.08 0.12 0.22 0.28 0.49 0.68 0.76 1.00 0.88 0.89 0.65
0.00 0.00 0.00 0.00 0.00 0.00 0.00 0.00 0.00 0.00 0.00 0.00 0.00 0.00 0.00 0.00 0.00 0.00 0.01 0.05 0.06 0.02 0.12 0.13 0.12 0.10 0.26 0.59 0.89 1.13 1.43 1.44
0.00 0.00 0.00 0.00 0.00 0.00 0.00 0.00 0.00 0.00 0.00 0.00 0.00 0.00 0.00 0.00 0.00 0.00 0.00 0.02 0.04 0.06 0.07 0.08 0.10 0.17 0.27 0.35 0.47 0.55 0.66 1.02
0.00 0.00 0.00 0.00 0.00 0.00 0.01 0.01 0.01 0.01 0.01 0.00 0.00 0.01 0.01 0.01 0.00 0.01 0.00 0.01 0.05 0.09 0.11 0.11 0.16 0.16 0.23 0.26 0.28 0.36 0.42 0.45
0.00 0.00 0.00 0.00 0.01 0.01 0.02 0.02 0.04 0.05 0.03 0.02 0.02 0.03 0.02 0.03 0.03 0.02 0.02 0.02 0.05 0.18 0.27 0.25 0.26 0.24 0.27 0.32 0.31 0.28 0.41 0.35
0.00 0.00 0.00 0.01 0.03 0.05 0.16 0.21 0.19 0.09 0.03 0.03 0.04 0.06 0.06 0.05 0.04 0.05 0.05 0.04 0.07 0.10 0.21 0.49 0.37 0.44 0.43 0.35 0.39 0.31 0.27 0.35
0.01 0.04 0.05 0.10 0.15 0.22 0.32 0.15 0.11 0.07 0.07 0.04 0.07 0.11 0.11 0.10 0.12 0.13 0.15 0.16 0.19 0.23 0.26 0.30 0.29 0.21 0.32 0.25 0.17 0.21 0.21 0.28
0.04 0.08 0.12 0.18 0.20 0.25 0.23 0.24 0.24 0.29 0.31 0.21 0.20 0.24 0.24 0.22 0.19 0.22 0.31 0.39 0.43 0.49 0.57 0.64 0.53 0.29 0.23 0.24 0.20 0.12 0.06 0.12
0.08 0.08 0.11 0.15 0.19 0.22 0.22 0.26 0.31 0.40 0.61 0.43 0.34 0.42 0.41 0.34 0.26 0.22 0.24 0.27 0.30 0.39 0.41 0.42 0.43 0.40 0.32 0.25 0.33 0.38 0.32 0.35
0.09 0.10 0.10 0.10 0.07 0.09 0.13 0.17 0.24 0.31 0.48 0.68 0.82 0.62 0.47 0.37 0.31 0.25 0.17 0.36 0.42 0.36 0.30 0.42 0.44 0.45 0.51 0.41 0.46 0.57 0.49 0.39
0.06 0.05 0.04 0.02 0.02 0.03 0.04 0.08 0.18 0.21 0.26 0.48 0.60 0.69 0.71 0.48 0.38 0.31 0.41 0.40 0.51 0.74 0.56 0.53 0.67 0.72 0.90 0.96 0.73 0.60 0.53 0.43
0.00 0.00 0.00 0.00 0.00 0.00 0.00 0.02 0.03 0.06 0.08 0.16 0.31 0.51 0.71 0.57 0.32 0.23 0.37 0.65 0.64 0.57 0.73 0.72 0.79 0.91 1.02 1.05 1.05 0.84 0.87 0.83
0.00 0.00 0.00 0.00 0.00 0.00 0.00 0.00 0.00 0.00 0.00 0.01 0.03 0.09 0.25 0.50 0.50 0.40 0.38 0.27 0.34 0.33 0.43 0.56 0.62 1.11 1.07 1.43 1.50 1.36 1.03 1.01

GFSFLT1_prec_precacc12_132.txt.gz
Total_Precipitation_Accumulation
0.00 0.00 0.00 0.00 0.00 0.00 0.00 0.00 0.00 0.00 0.00 0.00 0.00 0.00 0.03 0.03 0.06 0.30 0.40 0.53 0.70 0.93 1.04 0.99 1.05 1.00 0.85 0.73 0.44 0.25 0.19 0.16
0.00 0.00 0.00 0.00 0.00 0.00 0.00 0.00 0.00 0.00 0.00 0.00 0.00 0.00 0.00 0.05 0.07 0.05 0.22 0.29 0.44 0.52 0.88 1.54 1.33 0.72 0.50 0.70 0.85 0.61 0.40 0.41
0.00 0.00 0.00 0.00 0.00 0.00 0.00 0.00 0.00 0.00 0.00 0.00 0.00 0.00 0.00 0.00 0.03 0.08 0.09 0.11 0.17 0.37 0.43 0.62 0.99 1.01 0.81 0.70 0.78 0.85 0.68 0.65
0.00 0.00 0.00 0.00 0.00 0.00 0.00 0.00 0.00 0.00 0.00 0.00 0.00 0.00 0.00 0.00 0.00 0.00 0.03 0.08 0.10 0.14 0.25 0.30 0.49 0.95 0.88 0.58 0.49 0.65 0.72 0.73
0.00 0.00 0.00 0.00 0.00 0.00 0.00 0.00 0.00 0.00 0.00 0.00 0.00 0.00 0.00 0.00 0.00 0.00 0.01 0.09 0.15 0.16 0.19 0.27 0.36 0.36 0.62 0.61 0.51 0.49 0.52 0.54
0.00 0.00 0.00 0.00 0.00 0.00 0.00 0.00 0.00 0.00 0.00 0.00 0.00 0.00 0.00 0.00 0.00 0.00 0.00 0.01 0.07 0.13 0.25 0.34 0.47 0.58 0.33 0.68 0.72 0.67 0.60 0.50
0.00 0.00 0.00 0.00 0.00 0.00 0.00 0.00 0.00 0.00 0.00 0.00 0.00 0.00 0.00 0.00 0.00 0.00 0.00 0.00 0.00 0.01 0.05 0.12 0.17 0.34 0.56 0.72 0.97 0.89 0.94 0.76
0.00 0.00 0.00 0.00 0.00 0.00 0.00 0.00 0.00 0.00 0.00 0.00 0.00 0.00 0.00 0.00 0.00 0.00 0.00 0.00 0.00 0.00 0.03 0.05 0.07 0.04 0.24 0.54 0.81 1.11 1.46 1.56
0.00 0.00 0.00 0.00 0.00 0.00 0.00 0.00 0.00 0.00 0.00 0.00 0.00 0.00 0.01 0.01 0.01 0.01 0.00 0.00 0.00 0.00 0.01 0.03 0.06 0.10 0.23 0.33 0.46 0.54 0.64 1.02
0.00 0.00 0.00 0.00 0.00 0.00 0.01 0.01 0.01 0.00 0.01 0.01 0.01 0.01 0.02 0.02 0.01 0.01 0.01 0.01 0.01 0.01 0.01 0.01 0.06 0.11 0.19 0.24 0.28 0.35 0.40 0.43
0.00 0.00 0.00 0.00 0.00 0.00 0.02 0.02 0.04 0.05 0.03 0.02 0.03 0.03 0.04 0.04 0.04 0.04 0.04 0.04 0.04 0.03 0.03 0.02 0.04 0.14 0.21 0.26 0.28 0.25 0.36 0.30
0.00 0.00 0.00 0.00 0.01 0.04 0.16 0.21 0.18 0.09 0.03 0.03 0.04 0.08 0.11 0.10 0.10 0.10 0.10 0.07 0.07 0.06 0.06 0.06 0.05 0.22 0.33 0.31 0.37 0.29 0.25 0.33
0.00 0.01 0.03 0.06 0.09 0.20 0.30 0.12 0.07 0.05 0.05 0.06 0.11 0.16 0.18 0.15 0.17 0.16 0.12 0.12 0.10 0.08 0.10 0.11 0.06 0.08 0.24 0.22 0.14 0.18 0.19 0.26
0.02 0.04 0.06 0.12 0.16 0.20 0.15 0.10 0.11 0.09 0.12 0.23 0.26 0.29 0.26 0.25 0.21 0.20 0.16 0.14 0.12 0.11 0.10 0.13 0.11 0.11 0.16 0.22 0.18 0.11 0.05 0.10
0.05 0.05 0.09 0.11 0.14 0.12 0.13 0.14 0.15 0.13 0.18 0.29 0.35 0.46 0.50 0.45 0.36 0.25 0.13 0.09 0.09 0.09 0.10 0.12 0.14 0.18 0.20 0.17 0.28 0.35 0.28 0.26
0.06 0.07 0.07 0.07 0.06 0.05 0.06 0.08 0.10 0.11 0.11 0.21 0.59 0.58 0.50 0.40 0.31 0.20 0.11 0.12 0.14 0.18 0.13 0.17 0.20 0.17 0.28 0.27 0.33 0.42 0.37 0.32
0.03 0.02 0.02 0.01 0.00 0.00 0.00 0.02 0.06 0.06 0.09 0.17 0.25 0.33 0.61 0.45 0.34 0.21 0.25 0.24 0.32 0.59 0.40 0.34 0.44 0.48 0.59 0.69 0.57 0.51 0.45 0.35
0.00 0.00 0.00 0.00 0.00 0.00 0.00 0.00 0.00 0.00 0.01 0.03 0.06 0.13 0.23 0.34 0.25 0.16 0.30 0.55 0.53 0.45 0.59 0.60 0.69 0.73 0.76 0.88 0.87 0.71 0.74 0.74
0.00 0.00 0.00 0.00 0.00 0.00 0.00 0.00 0.00 0.00 0.00 0.00 0.00 0.02 0.04 0.12 0.19 0.15 0.21 0.16 0.21 0.23 0.32 0.43 0.53 1.02 0.93 1.26 1.38 1.21 0.95 0.87

GFSFLT1_prec_precacc12_135.txt.gz
Total_Precipitation_Accumulation
0.00 0.00 0.00 0.00 0.00 0.00 0.00 0.00 0.00 0.00 0.00 0.00 0.00 0.00 0.00 0.00 0.01 0.06 0.14 0.30 0.53 0.77 0.99 0.97 1.05 0.99 0.85 0.76 0.69 0.74 0.83 0.59
0.00 0.00 0.00 0.00 0.00 0.00 0.00 0.00 0.00 0.00 0.00 0.00 0.00 0.00 0.00 0.00 0.00 0.01 0.04 0.10 0.22 0.40 0.81 1.49 1.29 0.70 0.50 0.70 0.87 0.69 0.46 0.49
0.00 0.00 0.00 0.00 0.00 0.00 0.00 0.00 0.00 0.00 0.00 0.00 0.00 0.00 0.00 0.00 0.00 0.00 0.00 0.02 0.06 0.18 0.28 0.53 0.95 0.98 0.80 0.70 0.78 0.84 0.68 0.66
0.00 0.00 0.00 0.00 0.00 0.00 0.00 0.00 0.00 0.00 0.00 0.00 0.00 0.00 0.00 0.00 0.00 0.00 0.00 0.00 0.00 0.05 0.14 0.18 0.41 0.92 0.87 0.58 0.48 0.65 0.70 0.73
0.00 0.00 0.00 0.00 0.00 0.00 0.00 0.00 0.00 0.00 0.00 0.00 0.00 0.00 0.00 0.00 0.00 0.00 0.00 0.00 0.00 0.00 0.02 0.11 0.16 0.29 0.59 0.60 0.48 0.43 0.47 0.55
0.00 0.00 0.00 0.00 0.00 0.00 0.00 0.00 0.00 0.00 0.00 0.00 0.00 0.00 0.00 0.00 0.00 0.00 0.00 0.00 0.00 0.00 0.01 0.05 0.15 0.23 0.15 0.46 0.65 0.59 0.57 0.51
0.00 0.00 0.00 0.00 0.00 0.00 0.00 0.00 0.00 0.00 0.00 0.00 0.00 0.00 0.00 0.00 0.00 0.00 0.00 0.00 0.00 0.00 0.00 0.00 0.02 0.10 0.24 0.21 0.37 0.54 0.66 0.62
0.00 0.00 0.00 0.00 0.00 0.00 0.00 0.00 0.00 0.00 0.00 0.00 0.00 0.00 0.00 0.01 0.01 0.01 0.01 0.00 0.00 0.00 0.00 0.00 0.00 0.01 0.06 0.17 0.28 0.48 0.70 1.23
0.00 0.00 0.00 0.00 0.00 0.00 0.00 0.00 0.00 0.00 0.00 0.00 0.00 0.00 0.01 0.02 0.02 0.02 0.02 0.01 0.01 0.01 0.01 0.01 0.00 0.00 0.02 0.05 0.11 0.25 0.36 0.73
0.00 0.00 0.00 0.00 0.00 0.00 0.01 0.01 0.00 0.00 0.01 0.01 0.01 0.01 0.03 0.03 0.03 0.02 0.03 0.03 0.03 0.02 0.02 0.02 0.01 0.01 0.01 0.02 0.03 0.12 0.22 0.22
0.00 0.00 0.00 0.00 0.00 0.00 0.01 0.01 0.03 0.05 0.03 0.02 0.03 0.03 0.06 0.07 0.08 0.08 0.09 0.08 0.08 0.06 0.05 0.05 0.04 0.03 0.02 0.01 0.03 0.05 0.20 0.19
0.00 0.00 0.00 0.00 0.00 0.03 0.14 0.20 0.17 0.08 0.02 0.02 0.06 0.12 0.18 0.16 0.17 0.17 0.15 0.13 0.12 0.11 0.10 0.09 0.08 0.06 0.05 0.05 0.04 0.02 0.05 0.17
0.00 0.00 0.00 0.01 0.04 0.14 0.23 0.09 0.05 0.02 0.03 0.08 0.20 0.27 0.25 0.20 0.23 0.22 0.17 0.15 0.13 0.11 0.11 0.10 0.09 0.07 0.06 0.05 0.05 0.05 0.06 0.19
0.00 0.00 0.02 0.04 0.07 0.08 0.06 0.05 0.04 0.02 0.05 0.17 0.27 0.32 0.31 0.31 0.30 0.28 0.22 0.17 0.14 0.11 0.11 0.11 0.08 0.06 0.05 0.05 0.04 0.04 0.05 0.09
0.01 0.01 0.02 0.03 0.04 0.05 0.08 0.08 0.09 0.05 0.09 0.16 0.23 0.38 0.47 0.44 0.36 0.29 0.15 0.10 0.10 0.12 0.13 0.14 0.11 0.07 0.06 0.06 0.07 0.07 0.09 0.08
0.01 0.01 0.01 0.02 0.03 0.04 0.03 0.04 0.07 0.05 0.07 0.11 0.25 0.32 0.37 0.30 0.26 0.19 0.12 0.13 0.13 0.12 0.11 0.09 0.09 0.10 0.16 0.11 0.10 0.10 0.10 0.11
0.00 0.00 0.01 0.00 0.00 0.00 0.00 0.00 0.01 0.01 0.02 0.06 0.07 0.09 0.17 0.22 0.25 0.17 0.15 0.15 0.14 0.21 0.25 0.20 0.18 0.19 0.15 0.17 0.18 0.23 0.24 0.18
0.00 0.00 0.00 0.00 0.00 0.00 0.00 0.00 0.00 0.00 0.00 0.00 0.00 0.01 0.03 0.07 0.11 0.08 0.11 0.25 0.27 0.23 0.31 0.33 0.41 0.47 0.43 0.34 0.30 0.29 0.47 0.51
0.00 0.00 0.00 0.00 0.00 0.00 0.00 0.00 0.00 0.00 0.00 0.00 0.00 0.00 0.00 0.00 0.01 0.01 0.02 0.03 0.05 0.13 0.18 0.26 0.33 0.59 0.63 0.67 0.63 0.62 0.60 0.64

GFSFLT1_prec_precacc12_141.txt.gz
Total_Precipitation_Accumulation
0.00 0.00 0.00 0.00 0.00 0.00 0.00 0.00 0.00 0.00 0.00 0.00 0.00 0.00 0.00 0.00 0.00 0.00 0.00 0.00 0.00 0.00 0.00 0.14 0.34 0.46 0.55 0.57 0.60 0.65 0.78 0.60
0.00 0.00 0.00 0.00 0.00 0.00 0.00 0.00 0.00 0.00 0.00 0.00 0.00 0.00 0.00 0.00 0.00 0.00 0.00 0.00 0.00 0.00 0.00 0.00 0.03 0.07 0.07 0.25 0.51 0.48 0.28 0.33
0.00 0.00 0.00 0.00 0.00 0.00 0.00 0.00 0.00 0.00 0.00 0.00 0.00 0.00 0.00 0.00 0.00 0.00 0.00 0.00 0.00 0.00 0.00 0.00 0.00 0.04 0.13 0.18 0.27 0.33 0.27 0.24
0.00 0.00 0.00 0.00 0.00 0.00 0.00 0.00 0.00 0.00 0.00 0.00 0.00 0.00 0.00 0.00 0.00 0.00 0.00 0.00 0.00 0.00 0.00 0.00 0.00 0.00 0.05 0.11 0.17 0.25 0.34 0.35
0.00 0.00 0.00 0.00 0.00 0.00 0.00 0.00 0.00 0.00 0.00 0.00 0.00 0.00 0.00 0.00 0.00 0.00 0.00 0.00 0.00 0.00 0.00 0.00 0.00 0.00 0.00 0.07 0.12 0.16 0.16 0.29
0.00 0.00 0.00 0.00 0.00 0.00 0.00 0.00 0.00 0.00 0.00 0.00 0.00 0.00 0.00 0.00 0.00 0.00 0.00 0.00 0.00 0.00 0.00 0.00 0.00 0.00 0.00 0.01 0.08 0.12 0.16 0.15
0.00 0.00 0.00 0.00 0.00 0.00 0.00 0.00 0.00 0.00 0.00 0.00 0.00 0.00 0.00 0.00 0.00 0.00 0.00 0.00 0.00 0.00 0.00 0.00 0.00 0.00 0.00 0.01 0.02 0.02 0.05 0.13
0.00 0.00 0.00 0.00 0.00 0.00 0.00 0.00 0.00 0.00 0.00 0.00 0.00 0.00 0.00 0.01 0.01 0.01 0.02 0.01 0.01 0.01 0.01 0.01 0.01 0.01 0.01 0.01 0.01 0.02 0.04 0.14
0.00 0.00 0.00 0.00 0.00 0.00 0.00 0.00 0.00 0.00 0.00 0.00 0.00 0.00 0.01 0.02 0.02 0.03 0.03 0.03 0.03 0.02 0.02 0.02 0.01 0.01 0.01 0.01 0.01 0.01 0.01 0.02
0.00 0.00 0.00 0.00 0.00 0.00 0.00 0.00 0.00 0.00 0.00 0.00 0.00 0.00 0.03 0.03 0.03 0.03 0.04 0.04 0.05 0.05 0.04 0.04 0.03 0.03 0.03 0.03 0.02 0.01 0.01 0.01
0.00 0.00 0.00 0.00 0.00 0.00 0.00 0.00 0.00 0.00 0.00 0.00 0.01 0.01 0.05 0.08 0.09 0.10 0.10 0.09 0.09 0.08 0.09 0.09 0.09 0.09 0.08 0.07 0.06 0.04 0.03 0.03
0.00 0.00 0.00 0.00 0.00 0.00 0.01 0.01 0.00 0.00 0.00 0.01 0.03 0.10 0.18 0.18 0.19 0.17 0.15 0.13 0.15 0.14 0.16 0.16 0.17 0.17 0.16 0.14 0.10 0.07 0.08 0.05
0.00 0.00 0.00 0.00 0.00 0.01 0.02 0.02 0.00 0.00 0.01 0.05 0.16 0.22 0.23 0.18 0.21 0.21 0.20 0.21 0.20 0.18 0.18 0.15 0.16 0.16 0.15 0.14 0.13 0.11 0.10 0.09
0.00 0.00 0.00 0.00 0.00 0.00 0.02 0.01 0.00 0.00 0.02 0.10 0.18 0.20 0.19 0.20 0.23 0.22 0.22 0.25 0.25 0.20 0.23 0.23 0.17 0.15 0.15 0.14 0.14 0.10 0.11 0.10
0.00 0.00 0.00 0.00 0.00 0.02 0.03 0.01 0.00 0.00 0.01 0.05 0.10 0.14 0.21 0.24 0.23 0.18 0.11 0.07 0.08 0.13 0.20 0.30 0.30 0.22 0.17 0.14 0.12 0.11 0.12 0.10
0.00 0.00 0.00 0.00 0.01 0.01 0.00 0.00 0.00 0.00 0.00 0.00 0.03 0.06 0.08 0.07 0.08 0.07 0.02 0.02 0.03 0.03 0.02 0.05 0.08 0.12 0.22 0.18 0.18 0.16 0.15 0.16
0.00 0.00 0.00 0.00 0.00 0.00 0.00 0.00 0.00 0.00 0.00 0.00 0.00 0.00 0.00 0.00 0.00 0.00 0.00 0.00 0.00 0.01 0.01 0.01 0.04 0.09 0.08 0.09 0.11 0.14 0.12 0.14
0.00 0.00 0.00 0.00 0.00 0.00 0.00 0.00 0.00 0.00 0.00 0.00 0.00 0.00 0.00 0.00 0.00 0.00 0.00 0.00 0.00 0.00 0.01 0.00 0.01 0.04 0.07 0.11 0.09 0.08 0.05 0.06
0.00 0.00 0.00 0.00 0.00 0.00 0.00 0.00 0.00 0.00 0.00 0.00 0.00 0.00 0.00 0.00 0.00 0.00 0.00 0.00 0.00 0.01 0.01 0.00 0.00 0.00 0.01 0.03 0.08 0.09 0.09 0.09

GFSFLT1_prec_precacc12_144.txt.gz
Total_Precipitation_Accumulation
0.00 0.00 0.00 0.00 0.00 0.00 0.00 0.00 0.00 0.00 0.00 0.00 0.00 0.00 0.00 0.00 0.00 0.00 0.00 0.00 0.00 0.00 0.00 0.00 0.00 0.00 0.00 0.03 0.25 0.50 0.64 0.46
0.00 0.00 0.00 0.00 0.00 0.00 0.00 0.00 0.00 0.00 0.00 0.00 0.00 0.00 0.00 0.00 0.00 0.00 0.00 0.00 0.00 0.00 0.00 0.00 0.00 0.00 0.00 0.00 0.02 0.08 0.06 0.09
0.00 0.00 0.00 0.00 0.00 0.00 0.00 0.00 0.00 0.00 0.00 0.00 0.00 0.00 0.00 0.00 0.00 0.00 0.00 0.00 0.00 0.00 0.00 0.00 0.00 0.00 0.00 0.00 0.00 0.00 0.01 0.01
0.00 0.00 0.00 0.00 0.00 0.00 0.00 0.00 0.00 0.00 0.00 0.00 0.00 0.00 0.00 0.00 0.00 0.00 0.00 0.00 0.00 0.00 0.00 0.00 0.00 0.00 0.00 0.00 0.00 0.00 0.01 0.01
0.00 0.00 0.00 0.00 0.00 0.00 0.00 0.00 0.00 0.00 0.00 0.00 0.00 0.00 0.00 0.00 0.00 0.00 0.00 0.00 0.00 0.00 0.00 0.00 0.00 0.00 0.00 0.00 0.00 0.00 0.01 0.01
0.00 0.00 0.00 0.00 0.00 0.00 0.00 0.00 0.00 0.00 0.00 0.00 0.00 0.00 0.00 0.00 0.00 0.00 0.00 0.00 0.00 0.00 0.00 0.00 0.00 0.00 0.00 0.00 0.00 0.00 0.01 0.02
0.00 0.00 0.00 0.00 0.00 0.00 0.00 0.00 0.00 0.00 0.00 0.00 0.00 0.00 0.00 0.00 0.00 0.00 0.00 0.00 0.00 0.00 0.01 0.01 0.01 0.01 0.01 0.01 0.01 0.01 0.00 0.01
0.00 0.00 0.00 0.00 0.00 0.00 0.00 0.00 0.00 0.00 0.00 0.00 0.00 0.00 0.00 0.01 0.01 0.01 0.02 0.02 0.02 0.01 0.01 0.02 0.01 0.01 0.01 0.01 0.01 0.01 0.01 0.02
0.00 0.00 0.00 0.00 0.00 0.00 0.00 0.00 0.00 0.00 0.00 0.00 0.00 0.00 0.00 0.02 0.02 0.03 0.03 0.04 0.04 0.03 0.03 0.03 0.02 0.02 0.02 0.02 0.02 0.01 0.01 0.01
0.00 0.00 0.00 0.00 0.00 0.00 0.00 0.00 0.00 0.00 0.00 0.00 0.00 0.00 0.01 0.02 0.03 0.03 0.05 0.05 0.06 0.05 0.05 0.05 0.04 0.04 0.04 0.04 0.04 0.02 0.01 0.01
0.00 0.00 0.00 0.00 0.00 0.00 0.00 0.00 0.00 0.00 0.00 0.00 0.00 0.01 0.03 0.07 0.08 0.10 0.10 0.10 0.11 0.09 0.09 0.09 0.10 0.10 0.10 0.09 0.08 0.07 0.06 0.07
0.00 0.00 0.00 0.00 0.00 0.00 0.00 0.00 0.00 0.00 0.00 0.00 0.03 0.08 0.12 0.13 0.14 0.14 0.15 0.16 0.15 0.13 0.14 0.15 0.17 0.19 0.19 0.18 0.15 0.13 0.12 0.09
0.00 0.00 0.00 0.00 0.00 0.00 0.00 0.01 0.00 0.00 0.00 0.03 0.11 0.15 0.12 0.10 0.12 0.14 0.16 0.18 0.18 0.18 0.20 0.16 0.16 0.17 0.18 0.19 0.20 0.19 0.18 0.14
0.00 0.00 0.00 0.00 0.00 0.00 0.02 0.00 0.00 0.00 0.00 0.03 0.07 0.08 0.09 0.11 0.14 0.14 0.17 0.21 0.21 0.18 0.23 0.25 0.20 0.18 0.18 0.18 0.19 0.16 0.16 0.15
0.00 0.00 0.00 0.00 0.00 0.02 0.02 0.01 0.00 0.00 0.00 0.00 0.01 0.02 0.05 0.06 0.07 0.08 0.07 0.05 0.07 0.11 0.18 0.28 0.29 0.22 0.20 0.20 0.17 0.16 0.18 0.16
0.00 0.00 0.00 0.00 0.00 0.00 0.00 0.00 0.00 0.00 0.00 0.00 0.00 0.00 0.00 0.00 0.01 0.02 0.01 0.01 0.02 0.02 0.02 0.04 0.07 0.10 0.19 0.17 0.18 0.16 0.15 0.17
0.00 0.00 0.00 0.00 0.00 0.00 0.00 0.00 0.00 0.00 0.00 0.00 0.00 0.00 0.00 0.00 0.00 0.00 0.00 0.00 0.00 0.00 0.00 0.00 0.01 0.04 0.03 0.05 0.07 0.11 0.08 0.07
0.00 0.00 0.00 0.00 0.00 0.00 0.00 0.00 0.00 0.00 0.00 0.00 0.00 0.00 0.00 0.00 0.00 0.00 0.00 0.00 0.00 0.00 0.00 0.00 0.00 0.01 0.00 0.00 0.00 0.02 0.02 0.02
0.00 0.00 0.00 0.00 0.00 0.00 0.00 0.00 0.00 0.00 0.00 0.00 0.00 0.00 0.00 0.00 0.00 0.00 0.00 0.00 0.00 0.00 0.00 0.00 0.00 0.00 0.00 0.00 0.00 0.00 0.00 0.02